Theta_e
341 341 341 341 340 340 338 339 340 342 342 341 342 340 340 339 341 338 338 339 339 341 341 341 343 342 340 339 338 338 338 337 336 334 334 335 335 334 333 331 330 330 329 329 329 329 328 328 327 326 325 324 324 323 323 322 322 321 321 321 321 321 321 321 321 319 320 320 320 319 319 319 318 319 319 319 319 319 320 319 319 319 319 320 319
343 342 341 341 341 341 341 341 341 341 342 342 340 339 338 338 340 338 338 338 338 340 340 341 340 340 340 338 337 337 337 335 334 334 334 335 334 334 331 330 329 329 329 329 329 328 328 327 326 325 324 324 324 323 323 322 321 321 320 320 321 321 320 321 319 319 319 320 319 318 320 319 318 319 318 318 319 319 319 319 319 319 319 319 319
344 343 342 342 343 343 342 342 340 342 342 340 342 339 340 340 340 337 338 337 338 340 340 340 339 338 338 335 336 337 335 336 334 333 333 332 333 332 330 329 328 328 328 328 328 328 327 326 325 324 324 324 323 323 323 321 320 321 320 319 320 320 321 320 319 319 319 320 318 318 320 318 318 319 318 319 319 318 319 319 320 320 319 319 319
345 344 343 342 342 342 340 340 339 340 340 340 340 343 342 339 340 340 340 341 340 340 341 339 339 337 336 334 335 336 334 334 332 332 332 332 330 330 331 329 328 328 327 327 326 326 326 325 324 323 323 323 323 323 322 321 320 321 320 319 320 320 320 319 319 319 319 319 318 319 320 318 318 318 318 318 318 317 318 319 319 319 318 319 318
346 345 343 340 340 341 340 341 341 341 343 344 342 344 341 341 341 340 341 342 342 341 339 342 339 337 335 334 335 332 332 333 332 331 329 329 329 328 330 330 329 327 326 326 326 325 324 323 323 324 324 324 323 322 321 320 320 320 320 319 320 320 320 318 318 319 319 318 317 318 318 318 318 318 318 318 318 317 317 319 319 317 317 317 317
346 347 345 342 343 342 342 341 342 344 345 344 343 342 339 340 340 340 341 341 341 344 342 339 337 335 335 334 336 335 334 330 330 329 327 327 326 328 328 327 327 328 327 325 324 324 323 323 321 320 321 323 322 321 321 320 319 320 320 319 319 319 319 318 317 318 318 317 317 317 317 317 317 317 318 318 317 317 317 318 318 317 317 317 316
349 348 348 345 343 342 342 342 345 346 343 344 343 341 341 340 339 339 341 343 343 342 340 340 336 335 335 336 335 333 332 331 329 327 324 325 324 325 326 325 327 327 326 325 324 322 320 318 319 320 322 321 321 321 320 319 319 319 319 318 318 319 318 318 318 317 318 317 317 316 317 317 317 317 317 317 317 317 317 317 317 317 316 315 315
349 348 348 348 345 343 342 345 346 347 345 345 347 343 344 342 343 344 342 342 343 342 342 338 337 335 336 337 336 333 330 329 327 324 322 322 322 323 323 323 324 324 324 324 325 322 318 317 317 317 317 317 317 319 319 319 319 319 318 318 318 317 319 318 317 317 317 317 317 316 316 316 316 317 317 317 317 317 316 316 316 315 315 315 315
348 349 349 348 347 348 347 348 349 349 349 349 348 347 346 344 345 347 347 342 339 339 340 338 336 336 337 337 334 332 330 328 326 324 322 322 321 321 322 321 322 319 323 322 322 320 318 316 316 315 315 316 315 316 317 317 318 318 318 318 318 317 317 319 318 317 316 316 317 316 317 316 316 316 316 316 316 316 315 315 315 315 315 315 314
348 348 349 349 349 350 352 353 351 350 348 349 347 348 349 349 346 348 346 342 340 340 338 337 336 335 335 333 331 330 328 326 324 321 320 318 319 319 320 320 317 319 320 321 320 319 318 317 316 315 315 314 313 315 315 316 316 317 318 318 318 318 317 318 318 318 318 317 316 315 315 316 315 316 316 316 315 315 314 314 315 314 314 314 314
348 348 349 348 348 352 351 352 351 349 349 347 347 347 348 348 347 345 346 343 341 341 339 337 335 336 333 332 331 329 327 325 323 321 318 319 319 318 318 319 319 318 320 321 320 320 319 317 316 318 313 314 312 313 315 316 314 316 316 316 318 317 318 317 318 318 318 317 317 316 315 315 315 315 316 316 315 314 314 314 314 314 314 314 313
348 348 349 349 349 351 352 352 351 349 347 346 346 346 347 347 346 345 344 343 343 341 338 335 335 334 331 331 329 326 325 324 322 321 319 317 316 315 316 316 317 317 317 317 317 318 317 317 317 316 315 312 314 313 313 314 313 313 314 314 317 318 317 317 318 318 318 317 317 316 315 315 315 315 316 315 314 314 314 314 314 314 314 313 313
347 347 348 348 350 352 351 351 350 348 347 347 347 347 348 348 345 345 342 340 339 338 337 336 330 327 327 325 324 325 324 322 322 321 319 317 315 314 315 316 316 315 316 318 317 317 317 318 318 317 316 313 312 312 314 312 311 311 312 313 316 316 316 317 317 317 317 318 317 316 316 315 315 315 315 315 314 314 313 313 314 314 313 313 313
347 347 348 349 350 350 351 350 349 347 347 348 348 347 347 345 342 340 341 338 336 335 335 334 330 327 323 322 321 321 322 321 321 321 320 319 317 317 317 316 315 316 317 316 318 317 317 318 318 317 314 315 316 316 316 315 314 311 311 312 314 314 315 316 316 316 317 318 317 316 315 315 315 314 315 315 314 314 314 313 314 314 313 314 313
347 347 348 349 349 350 350 350 349 347 346 346 347 346 344 341 339 337 335 336 335 337 336 336 330 330 329 324 317 316 318 319 321 321 321 320 319 318 317 316 316 317 317 316 316 316 316 317 316 316 315 316 315 315 316 318 311 312 311 312 313 313 314 314 315 315 316 317 317 316 315 315 315 314 315 314 314 314 314 314 314 314 314 313 313
346 346 347 348 351 350 351 350 349 347 347 345 345 343 343 341 340 339 339 333 332 333 338 337 333 329 321 322 322 320 316 317 318 320 321 320 319 318 318 318 317 317 318 315 315 315 316 315 314 315 316 315 315 314 314 314 312 314 311 311 311 312 312 313 313 314 316 317 317 315 315 314 314 314 314 313 312 313 313 313 314 314 314 314 314
346 346 346 348 351 351 350 350 349 348 348 344 343 342 341 341 341 339 338 334 331 334 335 337 336 334 327 324 320 318 320 321 320 318 320 318 317 316 318 317 316 317 315 314 315 316 317 315 316 315 315 315 315 314 316 315 315 316 315 313 312 312 311 311 312 313 315 317 316 315 315 314 313 313 313 312 312 312 312 313 313 313 314 314 314
345 346 346 347 350 351 351 349 349 348 347 345 344 342 341 340 339 340 339 338 335 333 332 336 335 335 336 331 333 322 321 322 320 315 320 321 319 315 316 316 316 315 314 313 314 312 315 315 316 316 316 316 314 315 315 315 313 313 312 316 312 312 312 311 311 312 314 316 315 314 315 313 312 312 312 312 312 312 312 313 313 313 314 314 313
347 346 347 347 350 351 351 350 348 348 346 345 342 342 340 340 340 339 338 338 337 332 332 332 332 333 333 334 333 331 327 321 319 319 314 316 317 316 315 315 315 314 313 313 313 313 315 314 314 314 315 315 315 314 315 315 310 309 310 311 312 311 311 311 312 313 313 314 314 314 314 312 312 312 313 312 312 312 312 312 313 313 313 312 311
345 346 346 347 348 350 350 349 347 346 344 344 343 341 340 340 341 341 339 338 338 334 333 332 329 329 332 331 329 327 326 326 327 322 319 315 313 315 316 318 317 315 314 313 312 313 315 314 313 313 314 313 314 314 314 313 314 314 317 310 311 312 311 311 311 311 313 314 313 313 313 312 312 312 313 312 312 312 312 312 312 311 310 310 309
345 346 347 346 347 349 349 348 346 346 344 345 345 343 340 340 340 338 338 338 337 336 333 331 332 329 328 327 325 323 323 324 325 325 319 318 315 312 312 315 317 316 316 316 314 314 315 314 313 314 315 315 314 314 313 314 313 314 315 312 311 311 311 310 309 309 310 313 313 312 312 312 312 313 313 312 311 311 311 311 310 309 309 308 308
345 346 347 346 349 349 348 347 347 347 344 345 345 343 342 341 340 339 339 338 338 336 334 332 333 332 330 327 323 323 323 323 323 323 322 321 316 312 313 313 311 313 317 316 315 314 314 315 315 313 314 315 314 314 314 314 314 311 314 309 310 311 311 311 310 310 309 311 312 313 311 311 311 313 312 312 311 311 310 309 309 308 308 308 308
343 345 346 346 350 350 349 348 347 345 343 344 344 342 341 340 340 340 339 338 336 336 335 335 333 332 331 328 326 325 324 323 323 323 322 320 317 316 315 313 313 311 315 316 314 314 314 315 314 313 314 315 315 314 314 315 313 310 305 307 308 310 311 311 310 311 309 309 310 312 312 311 311 312 311 310 310 310 309 308 308 308 308 308 308
343 343 345 345 348 349 349 347 346 345 344 345 345 342 342 341 340 339 338 339 338 336 335 334 333 332 333 330 329 329 327 326 326 326 323 321 320 318 316 315 313 312 317 317 315 313 313 314 313 313 314 313 313 314 313 311 313 308 310 309 307 307 310 311 310 310 310 309 309 310 313 312 311 310 310 309 309 309 308 307 307 307 307 308 308
341 341 343 345 345 349 348 347 346 346 345 344 344 342 342 341 340 338 337 336 335 336 333 335 334 331 331 333 330 329 327 328 328 326 326 325 323 318 317 318 313 312 314 314 312 313 314 312 312 312 312 312 312 312 313 312 314 310 306 313 305 307 307 309 311 310 310 310 309 309 310 312 312 312 311 311 310 309 309 307 307 309 309 309 310
341 342 342 344 344 347 349 348 346 342 344 343 341 340 340 338 338 337 336 336 336 337 335 335 335 334 333 331 330 329 328 329 329 327 326 325 321 319 319 317 316 313 312 311 311 309 310 312 313 312 312 312 311 312 312 311 313 307 305 310 310 306 306 307 307 309 309 308 309 308 308 308 310 310 310 311 312 311 310 310 308 309 310 309 309
341 342 343 344 345 347 348 348 346 345 343 342 340 339 340 338 338 336 335 336 337 336 334 334 332 331 332 330 330 329 329 327 329 328 327 327 324 322 319 315 314 314 311 310 310 309 310 311 312 311 312 313 313 313 312 312 311 307 307 309 313 306 308 305 307 308 308 308 308 308 307 307 308 308 309 310 311 312 310 310 310 310 309 309 309
343 343 344 344 344 347 347 346 346 345 342 341 340 338 340 337 336 336 335 336 336 336 334 333 332 332 332 332 330 328 328 328 328 328 328 327 325 323 322 319 313 310 311 309 309 308 311 309 311 311 311 312 312 314 312 306 309 309 307 309 312 311 305 306 305 306 307 306 307 306 306 307 308 308 308 310 310 310 310 310 310 309 308 309 309
342 343 343 344 346 347 346 345 343 343 341 340 339 339 338 336 334 335 335 334 333 332 332 332 332 331 331 332 330 328 327 330 329 329 329 327 325 323 322 319 317 310 309 307 308 308 309 310 308 309 311 311 313 313 310 310 311 308 310 311 311 310 308 306 305 305 305 305 306 305 305 306 307 308 308 309 310 309 309 309 309 308 308 309 309
343 344 345 345 347 344 345 343 342 340 340 338 337 337 335 333 335 334 334 334 331 332 332 330 330 331 330 330 330 327 329 329 328 328 327 326 323 321 320 319 317 313 311 309 310 312 310 311 311 309 309 310 311 312 312 311 310 307 307 309 309 310 305 305 306 304 304 304 305 303 304 306 306 307 308 309 309 308 308 308 308 307 308 308 307
342 343 344 345 345 344 344 343 341 339 339 336 335 335 334 332 333 332 333 332 330 329 331 330 329 329 328 327 328 327 328 327 326 325 324 323 320 319 318 318 317 317 315 312 308 313 315 311 311 312 310 310 310 311 310 310 309 306 307 308 308 309 305 307 306 305 305 304 303 304 305 306 305 305 306 307 307 307 307 307 307 306 307 307 306
343 343 343 343 343 342 342 341 340 338 335 334 334 334 333 333 331 331 331 330 328 328 328 328 327 326 326 324 325 324 324 322 321 320 319 319 319 317 317 317 316 318 316 312 310 311 314 314 312 312 310 311 309 308 309 309 307 309 307 309 309 306 306 308 307 305 305 303 303 303 304 304 303 304 306 306 306 306 306 306 305 304 305 304 304
342 342 343 342 342 341 340 340 339 337 334 333 334 333 332 332 331 331 330 328 326 326 326 325 324 324 323 321 321 321 321 319 318 318 316 316 317 316 316 315 314 317 316 313 310 310 314 317 314 312 311 310 308 308 307 309 309 308 306 308 309 308 308 308 309 304 303 302 302 301 301 301 302 304 305 304 304 304 303 302 302 302 303 303 301
341 341 342 342 341 340 339 339 338 336 334 334 333 333 332 332 331 329 329 326 325 325 324 322 322 321 322 319 318 319 318 316 317 315 315 313 311 310 311 312 310 314 316 311 309 308 312 314 312 312 310 310 307 308 308 308 308 308 306 308 309 309 308 309 308 309 301 303 301 301 301 301 301 301 301 301 300 299 300 300 299 299 301 301 298
342 342 342 342 340 340 338 338 337 335 334 333 334 333 332 331 329 328 327 325 324 323 322 320 319 320 319 319 318 318 317 317 316 315 314 312 311 310 312 310 311 313 313 312 312 309 311 311 312 310 310 309 308 307 306 308 308 308 305 305 305 305 307 308 308 309 301 302 300 302 301 300 301 300 299 300 300 299 299 299 299 299 299 299 299
340 343 342 341 340 339 337 337 336 334 334 333 332 332 331 330 328 326 325 324 323 322 320 319 318 318 318 318 318 318 317 315 314 313 312 312 311 310 309 311 312 311 313 313 313 312 311 309 311 308 310 309 308 308 306 307 306 306 307 307 306 305 307 306 307 308 303 301 302 301 302 302 301 301 300 299 300 300 299 299 299 299 299 299 299
341 342 341 340 338 338 337 336 335 334 333 332 331 330 330 329 328 326 324 323 322 320 320 319 319 318 317 318 317 315 314 314 313 311 311 311 309 310 309 308 308 311 312 311 312 311 311 308 310 310 311 309 309 308 307 305 307 307 309 308 308 307 308 307 307 306 304 301 302 302 303 302 302 301 300 300 300 300 299 299 299 299 300 300 300
341 341 339 338 337 337 336 336 335 334 333 332 331 329 328 328 327 325 323 321 320 319 319 319 318 318 317 317 316 315 314 314 313 311 312 311 310 310 309 308 308 310 311 312 313 311 308 307 310 308 310 307 308 307 307 306 304 304 306 307 308 310 311 310 307 306 309 308 310 310 307 305 303 300 302 302 301 299 299 299 300 300 301 301 300
340 339 338 338 337 337 336 336 335 334 332 331 330 329 327 326 325 322 321 320 319 319 319 318 317 317 317 316 316 315 313 314 312 312 312 312 311 310 310 310 310 311 311 308 306 307 309 308 309 309 308 308 307 304 306 306 306 305 304 305 305 307 308 307 307 307 308 308 306 303 304 305 304 306 304 302 301 301 300 301 302 302 302 301 300
340 339 338 337 337 337 337 337 335 333 332 330 329 328 327 325 323 321 320 319 318 318 318 317 317 317 316 315 315 314 313 313 314 313 313 312 312 311 311 312 312 309 306 306 307 307 307 307 305 305 305 305 304 305 309 306 305 306 307 305 302 303 305 308 309 307 307 307 307 308 306 306 306 306 301 301 302 302 302 303 303 304 304 301 299
340 339 338 337 335 335 336 336 333 332 330 330 329 328 326 324 322 320 319 318 317 317 317 316 316 315 315 315 314 313 314 315 313 311 312 312 312 310 313 312 309 307 306 308 308 305 306 306 305 306 304 303 303 304 304 304 304 305 308 306 304 306 307 306 308 309 306 306 307 307 307 310 308 308 309 309 311 312 310 304 306 302 303 300 298
339 339 337 336 334 334 333 332 332 331 330 330 322 314 315 322 322 319 319 318 317 316 315 314 315 314 314 315 315 314 314 312 309 305 303 305 308 313 313 310 307 306 306 307 306 305 306 304 303 303 302 302 303 305 304 306 308 308 305 307 305 305 306 306 306 309 309 307 306 306 307 309 308 307 308 308 309 309 309 308 306 303 302 298 298
338 337 336 334 334 333 331 330 329 329 328 325 306 303 303 307 319 320 318 318 317 316 315 315 314 314 314 314 315 313 313 311 310 300 300 300 298 300 301 304 308 311 309 307 307 307 304 303 303 303 301 302 303 305 305 306 309 307 305 306 305 305 303 301 301 306 312 309 306 305 306 310 309 306 306 307 307 308 308 308 302 301 300 299 298
337 336 335 333 333 332 331 330 328 327 328 309 300 300 301 302 309 320 319 318 317 316 315 315 314 314 314 313 314 313 311 310 310 308 304 298 295 295 296 297 297 296 296 307 308 306 305 303 303 303 302 302 303 306 305 306 306 306 308 308 307 305 305 303 303 303 307 311 307 305 305 308 309 308 306 306 307 308 307 304 301 300 299 299 298
336 334 333 333 332 331 330 328 327 326 328 300 299 299 299 300 301 312 319 319 317 316 316 315 314 314 313 313 312 313 310 312 310 310 309 306 299 296 297 296 295 294 294 293 294 305 310 305 303 302 301 303 304 306 308 307 308 306 306 305 307 307 306 304 304 303 306 309 307 305 302 306 308 307 305 307 307 308 307 302 300 300 300 299 298
334 333 333 331 330 329 329 328 327 326 326 301 298 298 298 298 298 304 320 318 317 316 316 315 315 314 313 312 312 313 313 312 311 310 309 308 307 306 306 307 307 304 294 292 292 291 299 307 305 302 304 305 304 307 309 309 307 306 305 304 307 305 305 304 306 305 308 310 308 305 303 304 307 306 305 307 307 307 307 303 299 299 299 299 298
333 332 331 331 328 326 326 326 326 325 325 297 297 296 297 297 297 301 320 319 317 317 316 316 315 315 314 313 313 313 314 312 311 311 310 310 309 309 308 308 308 309 308 306 305 305 304 304 305 305 307 309 308 307 310 311 310 309 309 308 307 306 306 307 307 309 309 311 311 306 300 302 306 304 305 306 308 307 307 302 299 299 299 299 299
335 335 331 330 326 323 322 323 325 325 323 295 296 296 295 296 296 313 319 318 316 316 315 315 314 314 314 314 313 313 314 312 307 300 305 311 311 310 308 308 308 309 309 308 300 301 311 310 309 311 313 311 299 310 310 311 311 310 309 308 308 307 305 304 303 306 305 309 310 306 303 302 306 304 304 306 307 306 307 307 301 301 300 299 299
332 332 331 328 326 323 322 323 325 325 320 299 295 295 295 294 300 314 318 316 316 315 315 315 314 314 314 314 315 312 311 312 303 296 298 303 310 308 307 307 307 307 306 308 297 293 293 293 293 292 291 291 292 292 291 291 302 305 306 303 303 305 304 302 303 303 304 307 307 308 304 301 305 305 304 305 306 305 306 306 308 302 301 299 299
331 331 329 328 327 326 324 325 325 324 320 302 294 295 295 294 304 315 317 315 315 315 315 315 315 314 314 314 313 311 311 312 295 295 295 303 308 308 308 306 305 305 305 306 308 307 294 292 292 292 293 293 292 290 291 292 291 297 304 301 304 304 303 303 300 302 304 305 305 308 304 301 304 305 303 305 305 307 306 306 306 306 302 301 301
330 330 327 325 323 323 324 326 316 321 319 303 294 294 294 295 305 317 316 315 315 314 314 313 314 314 314 313 310 310 312 308 292 294 293 302 308 308 308 307 304 304 304 306 308 306 307 307 308 308 306 299 302 307 307 292 292 297 305 305 305 303 302 302 302 302 301 303 308 309 303 303 303 304 304 302 301 303 306 306 306 306 307 306 306
Wind_Speed
8 8 8 8 8 8 9 9 9 7 8 8 8 7 7 6 6 7 6 6 6 6 6 5 4 4 4 5 5 5 5 5 5 5 6 6 6 9 11 12 11 10 11 11 10 11 11 11 11 11 11 10 10 10 10 9 8 8 8 7 9 9 8 10 9 8 8 9 11 11 10 12 14 12 13 14 15 15 15 15 15 16 16 16 17
8 8 8 8 8 8 8 8 8 7 8 8 7 7 7 7 7 7 7 7 7 6 6 5 5 4 5 6 6 5 5 5 5 5 6 6 7 8 11 10 9 9 10 11 11 10 10 10 10 9 8 8 8 7 9 8 7 7 7 7 7 8 8 10 9 8 7 10 11 10 11 13 13 13 14 14 14 15 15 16 16 16 16 17 17
8 8 7 8 8 8 8 8 8 8 8 8 7 7 7 7 7 7 7 7 6 6 6 5 5 6 6 7 6 5 5 4 4 5 5 6 6 7 9 10 9 9 9 9 9 10 9 9 8 7 8 8 7 8 9 7 7 6 7 7 7 7 8 9 8 7 8 11 10 10 13 12 12 13 13 15 14 15 14 16 16 17 17 17 18
8 8 8 8 8 8 8 8 8 8 7 7 8 7 7 7 7 7 6 6 6 6 5 5 5 6 6 7 6 5 5 4 4 4 4 6 6 7 7 8 9 9 10 9 9 9 8 8 6 6 7 7 7 8 8 6 6 6 7 6 6 6 7 7 6 6 10 10 9 10 11 12 12 13 14 13 14 13 15 15 15 16 16 16 17
8 8 8 7 7 7 7 8 7 7 7 8 9 7 7 6 6 6 6 6 6 6 5 5 6 6 6 7 6 6 5 4 5 4 4 4 5 6 7 7 9 9 9 9 8 7 6 5 6 6 7 7 6 7 7 6 6 5 6 6 5 5 6 6 6 6 9 9 8 9 10 11 11 13 13 14 14 14 14 14 15 15 15 16 16
9 9 8 7 7 7 7 7 7 8 7 8 7 7 7 7 8 8 7 7 7 6 6 6 6 6 6 6 4 5 4 4 4 4 4 4 4 5 5 7 7 7 7 8 7 8 7 6 5 5 4 5 5 6 6 6 5 5 5 5 4 4 5 5 5 6 7 7 6 8 9 9 10 12 13 13 13 14 15 14 14 15 16 16 16
10 9 9 8 8 8 8 7 7 8 8 8 8 7 7 8 8 8 8 7 7 7 7 7 7 7 6 5 6 5 4 4 4 4 4 4 4 4 3 4 5 6 7 7 7 7 5 5 5 5 5 4 5 5 5 5 5 4 4 4 4 3 3 4 4 6 5 5 6 8 7 9 11 11 12 12 12 14 14 15 14 15 16 15 16
10 10 9 9 9 8 9 8 9 8 7 8 8 8 7 8 8 7 8 7 7 7 6 7 7 7 6 6 5 4 5 4 4 4 4 4 4 4 4 3 4 4 3 5 5 7 6 6 6 6 6 6 5 4 4 4 4 4 4 4 3 4 4 3 3 4 5 4 5 6 6 8 10 11 11 12 12 13 13 14 14 14 15 16 17
11 10 9 9 8 8 8 8 8 7 7 7 7 7 7 7 7 7 7 7 8 8 7 7 7 7 6 6 5 4 4 4 3 3 3 4 4 4 4 4 4 5 3 4 5 6 7 6 6 5 5 5 4 3 4 5 4 4 4 5 4 4 5 4 2 1 2 4 6 6 7 7 9 10 11 12 11 12 13 13 13 13 14 15 17
11 10 8 8 8 7 7 8 8 7 7 7 7 7 7 7 7 7 7 7 6 8 8 8 7 7 6 6 5 4 4 4 4 3 4 4 4 4 4 4 5 4 4 4 5 6 7 6 6 6 5 4 2 2 4 6 5 5 5 5 5 4 5 5 5 4 3 3 3 6 8 7 8 8 10 10 10 11 12 12 12 13 14 15 16
11 10 9 9 8 7 7 8 8 7 7 9 8 8 8 8 8 7 6 6 6 7 7 8 7 7 7 6 5 4 3 3 3 3 4 4 4 4 4 4 4 4 4 4 4 5 5 5 6 6 7 5 2 2 4 5 5 5 6 6 5 5 5 6 6 5 4 5 5 5 8 6 7 7 9 9 10 10 11 11 12 13 14 15 16
11 10 9 9 8 6 6 7 7 8 8 9 8 8 9 9 9 8 8 6 6 7 8 8 7 7 7 5 4 4 4 3 3 4 4 5 5 4 4 4 5 4 4 4 3 4 3 2 1 1 4 7 4 2 2 3 4 5 6 6 6 6 6 6 6 6 6 4 5 5 7 6 7 7 9 8 9 10 11 11 12 13 15 16 17
11 10 10 9 7 6 7 7 7 8 8 8 9 9 8 8 7 7 9 8 7 8 8 8 9 7 5 4 4 3 3 3 4 4 4 5 5 5 4 4 5 5 5 4 4 4 3 3 2 2 2 5 7 7 5 3 2 3 6 6 7 7 6 6 7 8 7 6 5 5 6 7 7 7 8 8 10 10 11 12 13 14 15 16 17
10 10 10 9 8 6 7 7 7 7 8 8 9 8 9 8 7 7 8 8 7 9 9 9 8 8 8 6 5 4 4 4 5 4 5 5 5 5 5 5 5 5 5 5 4 4 4 3 3 2 1 1 1 3 5 8 8 4 5 6 6 7 7 6 7 8 8 7 6 5 5 6 6 8 9 9 10 11 11 12 13 14 16 17 17
10 11 9 9 8 6 7 6 7 7 8 8 9 9 9 10 10 8 8 8 7 7 10 10 7 7 7 6 6 6 6 5 5 6 6 5 5 5 5 5 6 5 5 5 5 5 4 3 3 2 1 1 1 1 1 1 4 1 2 4 6 7 7 7 7 8 8 7 5 5 5 5 6 8 8 9 11 11 12 13 13 14 16 17 18
11 11 9 9 8 7 6 7 7 7 8 9 9 10 9 9 10 10 9 8 8 9 9 10 6 7 7 7 5 6 6 9 8 7 7 7 6 6 6 6 7 6 4 5 5 5 4 4 4 3 2 1 1 0 1 2 3 8 6 1 2 6 7 7 8 8 8 7 5 5 5 5 6 7 8 9 11 11 12 13 13 14 16 17 19
11 11 10 9 8 7 7 7 7 8 8 8 9 9 10 10 10 10 10 9 8 7 9 10 7 8 5 5 3 5 6 6 7 5 7 7 8 8 7 7 7 7 6 6 5 5 4 4 4 4 3 2 2 1 2 1 1 3 4 6 3 4 5 7 7 7 8 7 6 5 5 5 7 7 8 9 10 11 12 13 14 15 17 18 18
11 11 10 9 8 8 7 7 8 7 8 7 7 8 9 11 11 10 11 10 7 8 8 8 7 7 6 4 6 4 2 7 5 4 6 6 6 8 8 9 8 7 7 7 7 6 6 5 5 4 4 4 2 3 1 1 1 1 4 5 3 3 4 5 6 7 8 7 7 6 6 6 7 6 8 8 10 11 12 13 14 15 16 17 17
11 11 10 9 8 8 8 8 8 8 8 7 9 9 9 11 10 10 9 9 8 8 9 9 7 7 6 4 4 3 1 4 5 2 5 7 6 7 8 9 9 9 8 7 7 6 5 5 6 5 5 4 3 2 4 2 3 2 3 3 2 2 2 3 5 6 8 8 7 7 6 7 7 8 9 10 11 12 13 14 15 15 15 16 17
11 11 10 10 9 8 8 8 8 8 8 8 8 8 9 9 9 10 9 8 9 8 8 8 9 8 8 7 4 3 3 5 7 5 6 4 7 7 7 8 8 8 8 7 8 7 6 5 5 5 5 5 4 4 2 1 1 2 4 4 3 3 2 2 4 6 7 9 8 8 8 7 9 9 10 11 11 12 13 14 14 15 15 16 17
12 11 10 10 9 9 9 8 9 8 8 7 8 9 11 10 9 9 8 8 8 8 7 8 8 8 8 7 5 4 5 6 6 6 6 6 5 9 8 8 7 8 7 7 7 7 7 7 6 5 5 4 4 3 3 1 1 2 3 4 3 4 3 2 3 5 6 8 8 9 9 9 10 10 11 11 12 12 13 13 13 14 15 16 17
11 11 10 11 10 9 9 9 9 8 8 8 8 10 10 10 9 9 8 8 6 8 8 7 7 8 7 6 6 6 6 6 6 7 7 7 7 5 9 11 10 9 9 8 8 7 7 7 7 6 5 4 4 3 2 3 1 2 6 3 3 5 5 3 3 4 6 7 8 8 10 10 10 11 11 11 12 12 13 13 13 14 15 16 17
10 10 11 11 10 10 9 9 8 8 8 9 9 10 8 8 8 9 8 9 7 8 8 8 8 7 7 7 7 7 8 8 6 6 7 6 6 6 6 9 9 9 10 10 8 9 8 7 7 6 5 5 3 3 3 1 1 4 4 0 2 5 5 3 3 4 5 7 7 9 9 10 10 10 11 11 12 12 13 13 13 14 15 16 17
10 10 10 11 10 9 9 9 8 8 9 8 6 6 7 8 7 7 7 9 8 8 8 9 10 8 8 7 8 9 9 8 7 6 6 6 5 6 5 7 8 7 8 9 9 8 8 8 7 6 5 5 4 3 2 4 5 7 5 7 2 3 4 5 3 5 4 6 7 8 8 9 9 9 10 10 11 12 12 13 13 14 15 16 17
11 11 11 12 11 9 9 9 9 8 8 7 6 6 5 6 6 7 9 10 9 9 8 8 8 9 9 8 9 9 9 8 8 7 6 5 5 6 6 5 5 5 6 8 8 8 7 8 7 6 6 6 4 4 3 3 1 6 3 7 5 3 4 5 5 5 5 5 6 7 8 7 8 9 9 10 11 11 12 13 11 11 13 14 15
12 12 11 12 11 10 10 10 9 9 10 8 6 7 7 6 7 6 8 8 9 10 9 10 9 10 10 9 9 9 9 8 7 7 7 6 6 6 5 3 5 6 5 7 8 7 8 7 7 6 6 5 5 3 4 3 2 8 4 5 8 5 4 4 6 6 6 5 5 7 7 7 8 8 9 10 11 11 10 10 11 12 12 13 14
11 11 11 11 12 10 10 10 10 10 10 10 9 9 8 7 6 6 7 8 9 8 8 9 8 10 11 10 8 8 8 8 7 8 7 6 6 6 6 6 5 6 6 6 7 9 6 7 7 7 6 5 4 3 3 4 5 7 4 6 5 11 6 4 5 6 5 5 5 6 7 8 8 8 9 10 10 9 10 12 12 11 12 13 14
11 12 12 12 13 11 11 10 10 10 10 11 11 10 7 8 7 8 10 6 7 8 6 7 7 8 9 9 9 9 8 9 8 7 7 6 5 6 6 6 6 6 7 7 7 7 9 7 6 7 6 5 5 4 2 2 4 9 6 6 5 5 8 4 4 6 6 5 6 6 7 8 8 8 9 9 10 10 11 11 11 11 12 13 15
10 10 11 12 11 11 10 10 10 10 10 10 11 9 8 7 7 8 9 6 6 7 6 6 7 7 7 8 8 8 8 8 7 6 5 5 5 5 6 7 7 7 6 7 8 6 8 8 6 7 6 6 5 5 5 6 7 5 4 5 3 4 8 3 3 5 6 6 5 6 7 8 9 8 9 9 10 10 11 11 11 12 12 14 16
9 9 12 13 11 12 10 10 10 11 10 8 8 8 7 6 8 8 7 5 6 5 6 7 7 6 7 7 7 7 5 5 6 5 5 5 6 6 6 6 7 8 7 6 5 7 6 8 6 5 7 6 5 5 4 5 11 3 4 4 4 3 7 2 5 6 6 6 5 6 7 8 8 9 9 9 10 11 11 11 11 12 13 14 15
11 12 13 13 11 11 10 11 11 11 10 10 10 8 7 7 7 6 6 6 6 6 6 6 6 6 6 6 6 6 4 4 4 4 5 4 5 6 6 6 7 7 7 6 7 4 5 6 7 5 6 7 6 5 4 5 8 4 4 3 6 7 1 6 9 8 7 5 5 5 7 7 7 8 9 9 10 11 11 12 12 12 13 14 14
12 14 13 13 12 11 11 11 11 11 10 8 8 9 10 10 8 8 7 8 8 8 7 6 5 6 6 7 6 6 4 4 5 5 4 4 4 5 5 5 6 6 5 7 7 2 4 4 5 5 6 6 6 6 6 4 8 6 5 5 1 3 6 7 13 10 8 5 4 5 7 7 7 8 8 9 10 11 11 11 11 11 12 12 12
13 14 14 13 12 12 12 11 11 10 11 11 10 9 10 9 9 9 8 9 9 7 7 7 6 6 6 7 7 6 5 5 4 4 4 5 5 5 5 5 5 5 6 6 7 4 4 2 4 5 6 6 6 7 6 4 3 4 6 4 2 4 5 6 5 13 8 6 4 5 6 7 7 7 8 9 10 10 10 10 10 10 11 12 13
14 14 14 12 12 13 13 13 12 11 11 11 11 9 10 9 9 6 7 8 8 8 7 7 7 6 6 7 7 7 6 6 4 5 5 5 5 5 5 5 5 5 5 6 6 6 5 5 5 5 5 6 6 5 5 3 3 3 5 3 4 5 5 5 7 7 10 7 3 4 7 7 7 7 8 8 9 9 10 10 11 10 10 11 12
14 14 14 13 13 13 13 13 13 11 12 11 10 10 9 10 9 8 7 8 8 8 8 7 8 7 7 7 7 7 5 5 5 4 3 4 4 4 4 4 4 4 4 6 5 6 6 5 5 6 5 6 6 4 4 3 3 2 4 5 5 5 4 5 5 3 10 4 3 6 8 8 8 8 8 8 9 9 10 11 11 10 11 11 12
15 12 13 13 13 13 13 13 13 12 12 11 10 10 10 10 9 9 8 8 8 8 8 8 8 8 8 8 7 7 6 6 6 5 5 4 4 4 5 4 4 3 3 5 6 5 4 3 6 7 6 5 5 4 2 1 2 4 5 5 5 6 6 6 5 5 9 4 4 8 8 8 9 9 8 8 9 10 10 11 11 11 10 11 11
14 12 12 12 13 13 12 14 14 12 12 12 11 10 9 8 9 8 9 9 8 8 8 8 8 8 8 7 7 7 7 7 6 6 5 6 5 5 4 4 4 4 3 4 4 3 1 5 5 5 4 4 3 3 2 3 4 6 7 6 5 4 5 5 6 3 2 9 9 9 9 10 11 9 8 9 9 10 11 11 11 10 11 11 11
14 13 13 12 12 14 14 14 13 13 12 11 11 11 10 9 8 8 8 8 8 8 8 8 8 8 8 8 8 8 8 8 7 6 6 7 5 5 4 3 3 3 2 2 1 2 5 6 4 5 4 4 4 4 3 3 4 5 5 5 5 5 5 4 5 3 4 2 2 4 8 11 10 10 9 10 11 11 12 11 10 10 10 10 10
14 13 13 13 12 13 14 14 14 13 12 12 11 11 10 10 9 9 9 9 8 7 8 8 8 8 8 8 8 9 9 8 7 7 7 6 4 4 3 2 1 3 3 2 3 4 5 4 3 4 4 4 3 3 4 3 3 4 5 5 5 2 4 4 5 3 3 2 5 10 7 6 8 9 8 12 13 13 11 11 11 10 9 8 10
14 14 14 14 12 13 13 15 14 12 12 11 11 11 10 10 10 10 10 9 9 8 8 9 9 9 8 8 8 8 8 8 8 7 7 6 5 4 3 2 2 2 2 2 4 4 4 4 4 4 3 4 4 3 2 3 4 5 5 3 5 5 5 4 4 3 3 4 6 3 10 11 12 14 17 17 15 11 12 12 12 10 6 8 10
12 13 13 14 13 13 14 14 13 11 11 10 10 10 10 11 10 10 10 10 9 9 9 9 8 9 9 8 8 8 8 7 7 5 4 2 4 5 4 3 3 2 1 3 3 4 4 4 4 3 3 4 4 4 4 4 4 3 2 3 5 5 5 5 3 1 3 5 5 6 6 4 6 6 7 7 1 11 12 15 3 3 8 10 11
13 13 13 13 13 14 14 13 12 10 9 9 9 13 11 10 11 9 9 10 10 9 9 9 9 9 9 8 7 8 8 7 7 6 7 4 8 6 4 4 3 2 3 4 4 4 3 4 4 4 4 4 4 3 3 4 2 2 4 4 5 5 5 5 5 2 1 4 5 6 6 3 5 6 6 6 5 5 6 3 7 6 8 11 12
14 13 13 13 13 13 13 13 12 9 9 8 15 14 12 12 11 10 10 10 10 10 10 10 10 10 9 9 8 8 8 7 7 7 7 8 10 10 11 7 5 3 2 4 4 3 4 4 3 4 4 4 3 3 4 4 3 4 4 4 5 5 5 5 5 3 2 3 6 7 6 4 5 6 6 6 6 7 6 5 4 8 9 11 12
13 12 13 13 13 12 11 12 11 10 9 13 17 15 13 13 10 10 9 9 9 10 10 10 9 9 9 8 7 7 8 9 8 8 8 9 9 9 8 5 2 4 4 3 3 4 4 4 3 3 3 4 4 4 4 3 4 4 4 4 4 5 5 6 5 5 4 2 6 6 7 5 4 5 7 5 6 6 7 5 5 7 9 11 12
13 13 13 13 12 12 12 12 11 10 8 15 17 16 14 14 11 10 9 9 10 10 10 10 9 9 9 8 8 7 7 9 8 8 8 8 7 7 7 6 4 3 3 4 5 5 4 4 3 3 4 4 5 4 3 3 3 5 5 5 4 4 5 6 6 6 6 5 6 6 7 6 5 5 7 6 7 7 8 6 7 5 9 11 12
13 13 13 13 12 12 12 12 11 10 9 14 17 17 15 14 12 10 8 9 9 9 10 9 8 9 9 9 8 8 8 9 8 8 9 9 8 7 6 6 6 7 5 5 5 5 5 4 2 4 4 4 5 2 1 2 4 5 5 5 5 6 6 7 8 9 8 5 5 6 7 6 5 6 7 7 7 8 7 6 4 8 9 10 12
13 12 13 13 11 11 11 10 9 10 7 18 17 17 15 14 13 10 7 8 8 8 9 9 9 9 9 8 8 8 9 9 8 9 9 9 9 7 7 7 6 6 6 6 7 6 6 6 4 4 3 3 4 4 3 3 4 4 4 6 6 7 7 9 10 8 7 3 2 5 8 7 7 7 7 7 7 8 8 7 9 9 9 11 12
13 12 10 11 12 12 11 10 9 10 8 19 17 17 15 14 14 10 8 9 8 8 9 9 9 8 9 9 8 8 8 9 10 10 8 8 8 7 7 6 6 5 5 4 5 3 0 2 2 2 2 6 6 5 6 4 3 3 4 5 6 7 8 7 7 4 5 1 2 4 6 8 7 8 8 8 8 8 8 9 9 9 10 12 12
14 15 13 11 11 12 12 11 11 10 9 15 18 17 16 16 13 11 9 9 8 9 9 9 9 9 8 9 9 8 9 8 13 13 8 6 7 7 6 6 6 6 6 6 6 4 3 2 3 4 5 5 5 3 2 3 3 5 5 6 7 7 7 7 6 5 6 4 5 2 5 9 7 8 9 8 9 9 7 8 8 11 13 11 10
15 15 12 11 11 12 14 13 11 10 9 13 18 17 17 17 15 12 9 10 10 9 9 9 8 8 9 8 9 9 9 9 15 13 11 9 7 6 6 7 7 7 7 6 5 5 5 4 4 4 5 6 4 3 4 4 4 4 6 8 7 7 7 7 8 6 6 8 3 4 6 8 8 7 8 8 10 7 7 7 10 11 9 10 8
14 13 11 10 9 9 10 11 12 11 9 12 17 18 18 19 15 11 10 10 10 10 9 9 9 8 9 8 8 7 6 12 16 14 13 11 8 7 7 7 8 8 7 8 6 6 6 6 7 7 7 7 6 6 7 11 9 8 8 8 8 8 8 7 7 7 7 7 6 2 6 7 8 8 8 9 9 8 8 10 11 11 10 11 12
Wind_Direction
174 171 169 176 172 176 178 183 189 192 177 198 183 184 184 181 175 177 171 170 160 164 161 156 168 170 148 139 126 115 111 112 114 111 101 102 100 109 112 113 118 116 114 108 109 109 107 107 102 96 94 96 94 89 81 69 61 65 61 39 51 57 33 56 57 44 41 42 43 36 37 45 33 23 24 21 20 16 14 11 7 7 3 1 0
173 172 172 169 172 174 177 179 184 190 184 189 185 183 184 185 180 180 172 174 175 158 165 163 171 154 144 129 131 127 120 122 121 112 109 102 105 111 109 111 115 121 121 120 114 114 113 112 109 106 101 92 83 80 82 76 68 63 59 45 44 57 46 53 48 43 29 43 46 28 33 38 24 23 25 21 20 17 11 7 7 4 3 2 0
173 172 169 171 173 175 180 176 183 181 187 180 183 188 186 183 187 181 180 177 172 158 182 170 158 148 141 140 134 128 121 107 102 107 113 114 121 120 116 116 116 115 111 109 112 114 115 115 111 101 90 86 90 90 86 83 70 69 67 50 44 56 48 55 48 35 33 49 38 23 42 24 22 23 21 26 18 14 8 12 12 8 4 2 1
173 173 171 171 175 178 177 175 177 173 183 176 181 187 185 185 182 181 182 170 168 169 172 168 152 145 148 132 137 133 127 119 113 104 100 114 123 126 127 122 118 117 117 118 123 122 122 118 118 113 103 97 91 87 87 84 73 73 71 58 53 56 57 55 45 26 45 46 33 17 34 29 16 20 19 23 22 9 11 15 8 9 3 1 1
171 176 169 171 173 176 174 172 172 173 174 177 177 184 186 174 175 175 170 171 169 165 164 162 152 145 137 146 144 131 118 123 113 111 121 125 127 133 134 136 127 124 126 134 137 136 134 128 104 95 107 107 99 93 87 79 71 75 79 63 49 53 70 56 42 29 55 40 31 21 27 27 17 16 15 20 19 3 9 12 9 5 3 5 2
173 174 173 168 171 178 173 174 169 166 169 177 177 190 181 177 173 174 173 173 168 160 162 159 153 142 146 146 135 117 137 124 117 114 119 124 124 134 140 140 147 140 129 112 93 81 75 75 82 93 95 90 89 88 88 83 73 64 76 68 54 52 60 64 44 36 56 37 35 25 24 21 11 17 9 34 12 359 10 9 10 0 8 5 1
182 180 176 172 174 178 179 177 170 171 173 180 183 183 181 181 175 176 172 172 167 163 168 157 155 150 138 136 136 139 118 112 126 133 119 114 142 128 137 141 137 141 151 143 119 103 102 100 94 86 90 79 54 63 78 81 82 66 53 70 50 33 65 65 48 31 47 35 35 24 20 19 5 16 5 24 12 4 9 10 9 8 10 3 0
188 181 182 184 180 179 183 176 173 180 178 179 188 182 179 185 179 173 173 169 165 162 162 154 153 139 145 141 141 137 133 135 131 140 127 143 130 142 142 136 154 146 157 145 142 124 129 117 98 85 64 55 48 41 53 66 69 65 42 36 47 27 11 56 51 32 12 10 24 20 7 21 2 14 359 16 14 6 11 10 9 11 7 3 359
191 187 188 191 190 184 180 174 178 177 179 181 192 186 178 181 176 177 178 172 175 161 155 154 145 144 147 148 143 144 140 135 140 105 120 118 129 142 142 131 117 121 172 134 139 140 135 122 109 93 70 47 37 50 44 41 40 38 32 25 19 27 3 6 31 26 16 358 2 5 347 12 2 7 359 19 10 7 12 10 10 8 4 5 2
195 190 194 196 191 186 169 171 179 177 179 187 190 185 181 177 174 175 184 196 178 162 160 154 149 147 146 136 141 147 128 133 117 143 136 136 140 143 135 136 151 160 145 158 142 143 144 136 144 131 102 64 34 72 45 35 22 18 12 14 12 13 4 355 1 352 345 355 355 357 341 19 359 6 353 19 6 5 7 7 6 4 1 2 358
194 196 197 198 190 184 174 172 180 179 181 195 189 185 181 181 175 171 180 197 176 164 160 145 149 152 151 133 134 138 142 126 150 144 127 131 132 135 149 152 145 161 147 155 157 152 157 168 178 172 126 123 99 82 51 30 15 6 4 356 358 4 359 352 350 352 352 347 347 6 341 18 355 3 351 14 2 1 0 0 358 358 356 354 350
196 197 201 200 192 182 177 173 183 185 187 198 188 182 179 175 176 163 169 174 166 161 150 142 140 147 145 147 137 141 129 148 149 137 141 144 151 165 158 151 159 152 164 157 157 141 162 172 239 167 133 136 162 113 83 56 23 4 356 350 347 356 352 352 346 347 350 347 338 3 338 360 352 357 355 7 357 355 354 351 350 352 349 347 348
198 198 202 201 193 183 176 184 184 189 193 197 190 179 174 173 167 167 167 162 161 167 150 147 136 118 120 134 130 143 142 169 164 161 158 163 167 174 163 167 165 163 170 177 156 175 177 193 196 182 178 149 170 161 157 161 92 9 349 348 344 347 347 349 345 343 346 342 342 359 341 353 347 353 350 0 351 349 345 344 341 345 345 345 345
198 200 202 202 195 182 182 184 186 190 196 193 187 168 168 166 163 170 178 170 169 177 159 165 178 171 171 176 169 174 176 190 188 178 180 181 176 173 176 181 176 183 169 182 177 188 193 198 193 157 172 209 147 164 177 177 151 58 346 344 343 341 341 350 341 341 338 336 341 350 354 336 347 347 348 352 344 343 341 338 338 341 342 343 342
199 198 200 202 198 187 182 182 188 186 194 188 176 167 171 167 166 170 181 189 186 181 173 198 190 175 175 170 179 184 173 203 206 194 197 187 185 180 186 185 190 201 184 194 186 192 194 188 161 176 168 251 211 173 166 77 65 35 355 342 342 342 342 343 342 334 331 333 339 346 354 338 344 343 343 347 341 341 340 337 337 339 340 341 341
197 198 197 199 195 189 183 184 188 191 194 187 180 181 172 173 182 188 187 186 191 175 183 205 209 177 189 214 171 213 204 198 187 190 194 193 196 190 192 192 195 199 205 208 194 195 182 180 169 177 195 208 285 206 301 355 135 200 173 54 349 344 343 339 339 331 326 335 344 345 346 347 336 341 341 346 345 344 341 340 338 338 339 340 345
200 200 197 194 191 191 189 187 189 191 197 187 184 183 178 180 184 191 193 200 188 172 185 202 234 199 233 198 153 223 256 105 167 167 188 201 201 203 186 200 201 194 210 207 198 191 186 177 194 172 195 200 208 241 282 262 231 327 157 130 51 346 346 336 331 331 325 336 346 342 337 350 336 342 342 351 349 345 343 341 340 337 336 342 344
199 198 196 193 188 190 190 191 189 190 192 188 183 180 190 196 195 201 199 203 198 183 189 195 213 220 270 271 330 336 318 133 191 184 176 214 210 207 196 197 202 199 209 207 199 195 183 197 186 193 194 208 195 233 258 209 311 321 339 53 18 2 345 339 328 329 328 333 341 336 337 350 340 348 341 348 344 340 338 338 336 337 339 341 343
201 198 194 193 187 191 188 196 191 193 195 194 191 187 194 200 198 207 206 202 197 201 197 190 193 224 224 241 267 266 290 168 235 145 190 177 217 200 207 199 200 206 205 211 200 195 189 209 182 203 182 197 207 221 225 176 165 198 84 21 317 329 352 342 339 330 327 329 336 335 338 346 341 344 344 349 343 339 337 336 337 340 343 345 345
197 197 194 193 189 188 189 195 192 197 197 196 189 191 204 206 208 208 211 203 202 214 206 194 194 203 208 215 210 234 245 234 270 264 285 194 188 203 202 204 202 209 216 213 205 194 191 215 199 193 198 202 197 217 240 249 310 284 137 69 327 309 326 337 345 340 330 325 330 333 336 343 339 340 346 348 342 338 337 338 342 346 347 348 346
197 196 193 193 190 188 188 194 196 196 201 199 194 200 206 204 198 206 210 207 215 222 221 214 208 221 186 209 211 213 226 238 238 245 251 264 208 179 191 187 209 207 215 221 215 197 199 203 224 208 190 189 217 224 252 282 301 271 108 76 338 309 291 312 334 330 327 320 323 327 334 334 333 336 342 344 342 340 339 341 344 348 347 347 346
198 198 194 193 190 185 188 195 196 196 202 202 202 203 202 203 197 199 199 208 208 220 225 225 220 229 200 191 193 209 226 226 222 231 244 250 280 191 186 182 197 204 201 207 217 214 202 198 212 212 204 199 207 209 221 239 200 311 80 49 315 310 295 283 303 309 319 318 322 321 326 329 330 334 340 340 339 339 339 341 346 346 345 346 345
197 197 198 196 185 184 188 190 193 196 201 203 206 204 193 203 200 197 200 200 203 214 222 227 232 226 202 201 205 211 230 233 229 222 236 236 228 252 202 196 206 198 195 200 210 212 209 192 209 218 200 209 206 218 222 210 205 87 62 212 289 292 295 270 272 283 303 314 321 320 318 327 331 335 337 338 338 337 338 340 343 343 343 344 342
195 198 199 197 186 185 186 188 189 193 198 206 193 188 193 204 195 189 203 211 217 219 225 230 230 232 219 214 223 228 230 238 240 235 229 236 235 245 232 204 207 210 177 189 205 208 206 198 208 210 202 211 206 208 171 251 126 119 240 165 243 276 294 285 256 277 280 295 310 313 321 324 330 331 333 335 335 334 335 337 339 338 340 340 337
192 197 199 198 194 183 184 187 191 190 190 192 173 181 203 194 193 201 214 216 219 221 223 222 221 231 234 227 232 230 235 233 242 251 235 246 246 244 243 206 214 202 148 182 199 207 202 201 211 203 198 206 205 193 202 250 132 126 280 175 188 187 266 277 273 269 277 281 289 306 314 321 325 332 333 331 329 329 328 330 323 329 337 333 329
189 197 196 197 197 192 186 187 190 193 189 183 157 203 208 211 197 200 217 220 224 223 227 233 233 233 237 236 223 228 233 237 240 240 241 233 234 237 245 206 215 227 174 197 203 197 194 204 206 203 200 195 199 165 232 244 171 136 214 285 167 179 208 262 278 277 277 286 286 299 306 314 319 326 329 324 321 317 317 313 321 334 332 328 324
191 196 192 193 198 193 187 184 186 188 189 191 182 199 203 209 194 200 227 228 224 220 225 228 230 229 229 231 230 227 233 236 237 236 236 231 236 231 234 210 207 232 213 210 201 206 195 200 197 200 202 187 175 210 210 223 102 125 209 240 227 160 187 222 265 272 276 288 291 294 305 312 313 316 317 311 306 307 317 322 327 330 327 323 322
191 195 191 195 197 188 185 187 183 184 190 189 187 192 185 199 207 208 218 210 213 209 210 209 219 224 224 224 230 229 228 234 234 233 242 240 227 237 230 227 230 215 210 226 218 209 208 190 189 205 194 179 198 198 166 256 220 151 212 248 258 175 165 195 250 280 286 295 301 307 310 304 307 312 312 311 316 323 323 325 326 326 324 319 323
190 189 194 194 192 186 183 184 180 183 189 179 184 184 177 188 204 209 212 193 206 209 211 211 209 214 218 220 226 231 234 232 235 238 232 240 242 237 231 229 233 251 218 218 219 225 194 189 198 190 196 185 192 192 201 240 132 161 249 253 248 274 136 170 240 270 281 287 298 302 303 304 309 315 316 319 322 324 324 321 323 323 320 319 323
180 182 195 193 183 179 181 176 178 189 183 172 177 175 167 194 209 205 196 184 201 205 207 209 211 208 215 214 218 230 229 213 225 225 229 232 234 236 235 238 242 246 251 248 234 200 200 187 217 193 182 192 200 204 212 242 113 204 263 264 267 258 103 234 243 249 259 271 281 288 290 294 306 314 317 319 320 320 319 319 321 322 317 320 324
186 191 195 188 178 176 183 181 184 185 174 171 174 175 181 207 202 203 190 189 204 211 205 207 203 205 206 209 211 224 194 213 210 207 216 219 223 229 234 241 241 248 259 260 264 168 196 184 211 214 174 195 198 201 209 250 135 184 249 266 256 82 279 227 222 227 245 250 271 286 302 302 305 306 309 310 314 316 315 318 320 317 318 320 320
187 193 194 185 176 176 184 188 180 171 163 162 175 174 181 200 192 199 192 197 203 205 202 200 201 205 201 205 205 206 185 193 198 198 200 209 224 233 233 233 239 242 246 257 256 214 177 200 198 198 182 195 203 212 215 215 123 187 254 237 193 83 248 247 192 209 204 239 258 289 294 299 299 301 308 307 310 311 315 316 315 313 315 315 315
191 192 193 183 176 176 185 190 183 169 168 175 183 179 183 186 190 198 186 195 201 201 198 191 197 203 198 203 191 186 174 199 187 189 204 200 206 229 235 231 233 210 228 236 241 225 144 173 188 200 191 200 211 227 236 200 197 199 222 260 254 261 261 270 235 177 189 197 253 278 285 289 294 298 303 304 307 307 309 309 305 308 310 313 313
193 192 188 181 176 180 185 190 187 178 176 176 181 182 187 185 186 185 188 194 199 198 192 194 189 190 188 198 181 172 179 192 183 204 195 197 203 204 201 223 219 210 217 234 228 243 189 174 202 201 188 204 243 194 235 240 229 265 273 243 222 237 257 274 283 153 174 162 242 268 281 283 285 289 288 293 295 299 302 301 300 302 306 309 309
193 192 187 182 177 178 186 188 185 179 180 180 181 184 189 185 182 181 188 193 194 192 191 193 186 181 183 186 175 164 166 178 184 206 171 196 207 191 184 202 215 212 212 227 240 236 218 193 197 206 199 194 231 210 196 207 252 303 283 268 267 262 247 243 261 259 129 141 191 269 273 275 280 282 283 280 291 297 296 295 295 299 304 306 306
191 185 182 176 173 175 177 189 189 179 183 181 180 187 189 189 188 186 186 189 191 192 194 188 185 181 184 182 175 167 170 178 186 181 190 184 193 181 192 189 197 194 206 215 226 257 232 182 204 221 196 198 203 233 187 223 247 239 248 274 268 274 282 280 261 261 132 143 210 256 266 273 274 273 268 280 286 286 287 288 291 297 301 302 304
184 173 177 175 175 178 179 188 190 182 182 180 181 185 187 190 191 189 188 187 189 191 189 187 178 186 181 184 173 173 178 184 181 190 183 186 194 185 193 186 190 173 189 207 217 217 200 225 207 214 196 188 196 201 196 236 215 234 231 241 256 273 291 288 283 257 222 199 224 236 251 251 254 251 259 274 272 273 279 281 287 293 295 295 302
179 175 172 175 179 182 183 185 186 184 181 181 182 184 183 180 186 186 187 185 185 186 180 181 180 186 184 184 178 180 183 187 183 189 182 189 191 189 188 196 172 155 173 154 156 200 215 233 214 183 192 187 178 204 195 227 270 293 292 271 250 222 236 269 290 282 290 299 279 223 221 240 219 225 253 262 260 261 268 276 279 283 283 292 305
174 177 176 177 178 184 185 188 191 183 180 179 182 182 181 180 181 180 181 181 180 179 177 181 181 181 186 185 182 185 186 187 184 184 185 185 185 188 164 171 137 133 151 181 224 220 224 232 202 212 188 188 217 207 193 206 269 279 285 289 292 300 294 286 286 286 269 274 215 205 246 286 293 279 255 239 246 249 259 264 265 265 282 294 307
178 180 178 178 177 186 188 193 189 180 176 177 181 181 180 180 179 180 179 177 177 174 177 178 178 181 185 184 185 184 187 186 187 186 184 181 172 175 154 153 135 154 194 222 219 213 212 218 230 196 205 178 190 229 168 210 247 239 231 297 309 305 300 288 262 284 299 286 305 282 206 218 232 231 233 240 238 249 247 249 247 254 266 304 310
178 180 177 177 176 184 188 187 179 173 175 178 181 178 179 178 179 180 179 177 175 173 172 176 177 183 183 182 187 187 187 177 173 185 164 109 172 169 142 142 148 166 265 252 217 222 211 214 209 207 206 209 215 202 210 229 245 302 29 300 289 286 290 295 293 212 306 313 314 306 301 314 303 312 318 323 109 206 230 225 190 31 338 314 310
173 177 175 178 176 181 180 178 176 170 172 184 155 166 174 176 178 178 175 177 176 174 176 175 183 187 185 181 182 169 154 136 132 114 100 92 33 27 132 140 137 176 225 238 232 220 223 214 218 214 220 221 217 212 246 249 270 279 265 260 278 300 294 294 281 209 214 318 319 306 308 315 313 306 313 313 341 312 337 305 15 328 309 307 304
171 172 174 175 178 181 179 175 169 173 174 162 140 159 165 175 178 176 175 176 177 176 178 179 182 183 181 178 170 156 156 152 138 116 113 91 75 70 68 59 4 338 239 216 222 238 235 230 221 218 238 251 238 233 233 241 219 249 271 280 290 299 311 315 318 323 153 334 319 311 303 312 298 306 318 317 333 324 330 339 28 303 294 298 303
168 168 173 175 177 178 177 177 173 175 179 134 155 157 165 172 187 176 176 174 178 178 181 181 179 179 176 174 174 168 187 182 174 149 113 96 102 97 101 101 76 16 351 322 297 222 223 241 228 222 239 250 252 220 234 234 256 250 251 271 284 301 303 310 311 310 356 331 311 305 302 302 287 292 304 317 322 333 316 295 238 262 294 297 301
161 167 173 172 174 175 177 178 178 174 173 145 158 163 166 175 184 191 177 178 179 179 179 181 179 176 174 173 172 170 168 163 171 164 159 138 108 108 118 144 144 187 255 274 284 310 314 246 240 249 247 264 257 237 229 264 297 294 297 285 294 300 306 301 313 327 320 332 302 302 309 304 285 296 307 318 327 331 306 190 199 287 286 293 301
164 167 170 171 168 171 176 177 177 175 169 153 161 167 170 174 179 202 180 177 181 179 177 178 177 177 177 177 174 173 164 171 182 170 174 168 168 168 181 201 207 174 181 194 243 264 267 282 251 238 248 253 271 301 207 225 255 274 289 294 308 306 312 314 315 298 292 276 294 318 297 308 325 308 304 320 327 319 311 322 252 246 262 287 295
165 168 170 173 168 166 173 176 176 175 157 154 164 169 171 173 176 207 182 176 179 176 177 177 180 179 179 183 180 175 170 173 182 176 174 176 177 184 194 200 215 197 191 195 205 211 212 226 239 258 265 247 248 245 232 221 245 271 297 304 307 303 295 288 275 259 271 221 233 299 310 316 316 309 309 314 318 316 327 314 183 234 257 271 282
186 185 178 173 168 171 174 176 177 180 148 159 163 168 168 172 172 197 185 178 179 176 177 178 184 182 183 183 182 175 168 180 149 167 192 182 181 186 193 203 211 202 197 125 99 68 49 205 241 290 349 35 21 17 12 348 290 276 269 262 262 261 269 278 287 292 284 283 252 300 308 313 313 305 316 315 317 317 316 312 328 320 285 271 272
183 188 186 173 172 171 173 179 179 182 148 165 163 166 168 167 174 195 183 183 176 179 177 178 185 181 184 184 180 179 175 179 145 165 176 203 190 196 206 207 205 201 195 155 143 160 193 224 267 302 316 318 316 345 335 350 339 339 306 289 272 269 274 285 295 302 299 330 282 267 316 304 311 316 314 316 318 310 307 307 314 312 298 283 265
185 189 178 166 170 174 174 176 177 173 152 163 166 165 166 171 184 191 184 183 175 177 176 177 183 180 180 176 189 182 182 163 151 163 167 185 203 201 209 210 201 203 200 183 174 190 182 212 225 239 235 233 230 219 215 215 218 248 246 260 280 295 290 291 291 304 316 286 315 72 307 305 316 314 313 315 306 311 319 318 310 318 326 324 331
185 184 170 161 165 170 174 177 166 172 150 161 169 165 170 177 190 196 187 182 177 177 175 175 182 184 171 169 198 208 189 138 154 160 169 188 205 209 212 211 211 209 204 188 189 196 204 220 220 203 213 202 208 218 203 190 199 211 237 254 269 270 279 289 299 298 290 296 81 53 313 312 316 316 317 322 321 322 326 327 329 335 327 338 344